Year,Month,Day,Hour,Minute,Value (Times are PST for temperature in C)
2013,07,16,00,00,16.30
2013,07,16,00,01,16.30
2013,07,16,00,02,16.30
2013,07,16,00,03,16.30
2013,07,16,00,04,16.30
2013,07,16,00,05,16.30
2013,07,16,00,06,16.40
2013,07,16,00,07,16.40
2013,07,16,00,08,16.40
2013,07,16,00,09,16.30
2013,07,16,00,10,16.40
2013,07,16,00,11,16.40
2013,07,16,00,12,16.40
2013,07,16,00,13,16.40
2013,07,16,00,14,16.40
2013,07,16,00,15,16.40
2013,07,16,00,16,16.40
2013,07,16,00,17,16.40
2013,07,16,00,18,16.40
2013,07,16,00,19,16.30
2013,07,16,00,20,16.30
2013,07,16,00,21,16.30
2013,07,16,00,22,16.30
2013,07,16,00,23,16.30
2013,07,16,00,24,16.20
2013,07,16,00,25,16.20
2013,07,16,00,26,16.20
2013,07,16,00,27,16.10
2013,07,16,00,28,16.10
2013,07,16,00,29,16.10
2013,07,16,00,30,16.00
2013,07,16,00,31,16.00
2013,07,16,00,32,16.00
2013,07,16,00,33,15.90
2013,07,16,00,34,15.90
2013,07,16,00,35,15.90
2013,07,16,00,36,15.90
2013,07,16,00,37,15.90
2013,07,16,00,38,15.80
2013,07,16,00,39,15.80
2013,07,16,00,40,15.80
2013,07,16,00,41,15.80
2013,07,16,00,42,15.80
2013,07,16,00,43,15.80
2013,07,16,00,44,15.80
2013,07,16,00,45,15.80
2013,07,16,00,46,15.80
2013,07,16,00,47,15.80
2013,07,16,00,48,15.90
2013,07,16,00,49,16.00
2013,07,16,00,50,16.10
2013,07,16,00,51,16.20
2013,07,16,00,52,16.30
2013,07,16,00,53,16.30
2013,07,16,00,54,16.40
2013,07,16,00,55,16.40
2013,07,16,00,56,16.50
2013,07,16,00,57,16.50
2013,07,16,00,58,16.50
2013,07,16,00,59,16.60
2013,07,16,01,00,16.60
2013,07,16,01,01,16.60
2013,07,16,01,02,16.60
2013,07,16,01,03,16.60
2013,07,16,01,04,16.70
2013,07,16,01,05,16.80
2013,07,16,01,06,16.90
2013,07,16,01,07,17.00
2013,07,16,01,08,17.20
2013,07,16,01,09,17.30
2013,07,16,01,10,17.50
2013,07,16,01,11,17.60
2013,07,16,01,12,17.70
2013,07,16,01,13,17.70
2013,07,16,01,14,17.80
2013,07,16,01,15,17.90
2013,07,16,01,16,18.00
2013,07,16,01,17,18.10
2013,07,16,01,18,18.20
2013,07,16,01,19,18.20
2013,07,16,01,20,18.30
2013,07,16,01,21,18.30
2013,07,16,01,22,18.30
2013,07,16,01,23,18.30
2013,07,16,01,24,18.30
2013,07,16,01,25,18.30
2013,07,16,01,26,18.20
2013,07,16,01,27,18.10
2013,07,16,01,28,18.00
2013,07,16,01,29,17.90
2013,07,16,01,30,17.80
2013,07,16,01,31,17.70
2013,07,16,01,32,17.70
2013,07,16,01,33,17.60
2013,07,16,01,34,17.50
2013,07,16,01,35,17.40
2013,07,16,01,36,17.30
2013,07,16,01,37,17.20
2013,07,16,01,38,17.20
2013,07,16,01,39,17.20
2013,07,16,01,40,17.20
2013,07,16,01,41,17.20
2013,07,16,01,42,17.20
2013,07,16,01,43,17.20
2013,07,16,01,44,17.10
2013,07,16,01,45,17.10
2013,07,16,01,46,17.00
2013,07,16,01,47,17.00
2013,07,16,01,48,17.00
2013,07,16,01,49,17.00
2013,07,16,01,50,17.10
2013,07,16,01,51,17.20
2013,07,16,01,52,17.20
2013,07,16,01,53,17.10
2013,07,16,01,54,17.00
2013,07,16,01,55,17.00
2013,07,16,01,56,17.00
2013,07,16,01,57,16.90
2013,07,16,01,58,16.90
2013,07,16,01,59,16.90
2013,07,16,02,00,16.90
2013,07,16,02,01,16.90
2013,07,16,02,02,16.90
2013,07,16,02,03,16.80
2013,07,16,02,04,16.90
2013,07,16,02,05,16.90
2013,07,16,02,06,17.00
2013,07,16,02,07,17.10
2013,07,16,02,08,17.10
2013,07,16,02,09,17.20
2013,07,16,02,10,17.30
2013,07,16,02,11,17.40
2013,07,16,02,12,17.50
2013,07,16,02,13,17.60
2013,07,16,02,14,17.70
2013,07,16,02,15,17.70
2013,07,16,02,16,17.80
2013,07,16,02,17,17.80
2013,07,16,02,18,17.80
2013,07,16,02,19,17.80
2013,07,16,02,20,17.80
2013,07,16,02,21,17.80
2013,07,16,02,22,17.80
2013,07,16,02,23,17.80
2013,07,16,02,24,17.70
2013,07,16,02,25,17.70
2013,07,16,02,26,17.70
2013,07,16,02,27,17.70
2013,07,16,02,28,17.70
2013,07,16,02,29,17.70
2013,07,16,02,30,17.70
2013,07,16,02,31,17.70
2013,07,16,02,32,17.60
2013,07,16,02,33,17.60
2013,07,16,02,34,17.60
2013,07,16,02,35,17.60
2013,07,16,02,36,17.50
2013,07,16,02,37,17.50
2013,07,16,02,38,17.50
2013,07,16,02,39,17.40
2013,07,16,02,40,17.40
2013,07,16,02,41,17.40
2013,07,16,02,42,17.40
2013,07,16,02,43,17.30
2013,07,16,02,44,17.30
2013,07,16,02,45,17.20
2013,07,16,02,46,17.10
2013,07,16,02,47,17.00
2013,07,16,02,48,17.00
2013,07,16,02,49,16.90
2013,07,16,02,50,16.80
2013,07,16,02,51,16.80
2013,07,16,02,52,16.70
2013,07,16,02,53,16.60
2013,07,16,02,54,16.60
2013,07,16,02,55,16.50
2013,07,16,02,56,16.40
2013,07,16,02,57,16.30
2013,07,16,02,58,16.20
2013,07,16,02,59,16.20
2013,07,16,03,00,16.20
2013,07,16,03,01,16.20
2013,07,16,03,02,16.20
2013,07,16,03,03,16.30
2013,07,16,03,04,16.30
2013,07,16,03,05,16.30
2013,07,16,03,06,16.30
2013,07,16,03,07,16.30
2013,07,16,03,08,16.30
2013,07,16,03,09,16.30
2013,07,16,03,10,16.30
2013,07,16,03,11,16.30
2013,07,16,03,12,16.30
2013,07,16,03,13,16.20
2013,07,16,03,14,16.20
2013,07,16,03,15,16.20
2013,07,16,03,16,16.10
2013,07,16,03,17,16.10
2013,07,16,03,18,16.10
2013,07,16,03,19,16.10
2013,07,16,03,20,16.10
2013,07,16,03,21,16.10
2013,07,16,03,22,16.10
2013,07,16,03,23,16.10
2013,07,16,03,24,16.10
2013,07,16,03,25,16.10
2013,07,16,03,26,16.00
2013,07,16,03,27,16.00
2013,07,16,03,28,16.00
2013,07,16,03,29,16.00
2013,07,16,03,30,15.90
2013,07,16,03,31,15.90
2013,07,16,03,32,15.90
2013,07,16,03,33,15.90
2013,07,16,03,34,15.90
2013,07,16,03,35,15.80
2013,07,16,03,36,15.80
2013,07,16,03,37,15.90
2013,07,16,03,38,15.90
2013,07,16,03,39,15.90
2013,07,16,03,40,15.90
2013,07,16,03,41,15.90
2013,07,16,03,42,15.90
2013,07,16,03,43,15.90
2013,07,16,03,44,15.80
2013,07,16,03,45,15.80
2013,07,16,03,46,15.80
2013,07,16,03,47,15.80
2013,07,16,03,48,15.70
2013,07,16,03,49,15.70
2013,07,16,03,50,15.60
2013,07,16,03,51,15.60
2013,07,16,03,52,15.60
2013,07,16,03,53,15.50
2013,07,16,03,54,15.50
2013,07,16,03,55,15.40
2013,07,16,03,56,15.40
2013,07,16,03,57,15.30
2013,07,16,03,58,15.30
2013,07,16,03,59,15.20
2013,07,16,04,00,15.20
2013,07,16,04,01,15.10
2013,07,16,04,02,15.00
2013,07,16,04,03,15.00
2013,07,16,04,04,14.90
2013,07,16,04,05,14.90
2013,07,16,04,06,14.80
2013,07,16,04,07,14.80
2013,07,16,04,08,14.80
2013,07,16,04,09,14.70
2013,07,16,04,10,14.70
2013,07,16,04,11,14.70
2013,07,16,04,12,14.70
2013,07,16,04,13,14.60
2013,07,16,04,14,14.60
2013,07,16,04,15,14.60
2013,07,16,04,16,14.50
2013,07,16,04,17,14.50
2013,07,16,04,18,14.50
2013,07,16,04,19,14.40
2013,07,16,04,20,14.40
2013,07,16,04,21,14.40
2013,07,16,04,22,14.40
2013,07,16,04,23,14.30
2013,07,16,04,24,14.30
2013,07,16,04,25,14.30
2013,07,16,04,26,14.20
2013,07,16,04,27,14.20
2013,07,16,04,28,14.20
2013,07,16,04,29,14.10
2013,07,16,04,30,14.10
2013,07,16,04,31,14.10
2013,07,16,04,32,14.10
2013,07,16,04,33,14.00
2013,07,16,04,34,14.00
2013,07,16,04,35,13.90
2013,07,16,04,36,13.90
2013,07,16,04,37,13.90
2013,07,16,04,38,13.90
2013,07,16,04,39,13.80
2013,07,16,04,40,13.80
2013,07,16,04,41,13.80
2013,07,16,04,42,13.70
2013,07,16,04,43,13.70
2013,07,16,04,44,13.60
2013,07,16,04,45,13.60
2013,07,16,04,46,13.60
2013,07,16,04,47,13.60
2013,07,16,04,48,13.50
2013,07,16,04,49,13.50
2013,07,16,04,50,13.50
2013,07,16,04,51,13.50
2013,07,16,04,52,13.40
2013,07,16,04,53,13.40
2013,07,16,04,54,13.40
2013,07,16,04,55,13.30
2013,07,16,04,56,13.30
2013,07,16,04,57,13.30
2013,07,16,04,58,13.30
2013,07,16,04,59,13.20
2013,07,16,05,00,13.20
2013,07,16,05,01,13.20
2013,07,16,05,02,13.20
2013,07,16,05,03,13.20
2013,07,16,05,04,13.20
2013,07,16,05,05,13.20
2013,07,16,05,06,13.20
2013,07,16,05,07,13.20
2013,07,16,05,08,13.20
2013,07,16,05,09,13.20
2013,07,16,05,10,13.20
2013,07,16,05,11,13.10
2013,07,16,05,12,13.10
2013,07,16,05,13,13.10
2013,07,16,05,14,13.00
2013,07,16,05,15,13.00
2013,07,16,05,16,13.00
2013,07,16,05,17,12.90
2013,07,16,05,18,12.90
2013,07,16,05,19,12.90
2013,07,16,05,20,12.90
2013,07,16,05,21,12.90
2013,07,16,05,22,12.90
2013,07,16,05,23,12.90
2013,07,16,05,24,12.80
2013,07,16,05,25,12.80
2013,07,16,05,26,12.80
2013,07,16,05,27,12.80
2013,07,16,05,28,12.80
2013,07,16,05,29,12.80
2013,07,16,05,30,12.80
2013,07,16,05,31,12.80
2013,07,16,05,32,12.80
2013,07,16,05,33,12.80
2013,07,16,05,34,12.80
2013,07,16,05,35,12.80
2013,07,16,05,36,12.90
2013,07,16,05,37,12.90
2013,07,16,05,38,12.90
2013,07,16,05,39,12.90
2013,07,16,05,40,12.90
2013,07,16,05,41,12.90
2013,07,16,05,42,12.80
2013,07,16,05,43,12.80
2013,07,16,05,44,12.80
2013,07,16,05,45,12.80
2013,07,16,05,46,12.80
2013,07,16,05,47,12.80
2013,07,16,05,48,12.80
2013,07,16,05,49,12.80
2013,07,16,05,50,12.80
2013,07,16,05,51,12.80
2013,07,16,05,52,12.70
2013,07,16,05,53,12.70
2013,07,16,05,54,12.70
2013,07,16,05,55,12.70
2013,07,16,05,56,12.70
2013,07,16,05,57,12.70
2013,07,16,05,58,12.70
2013,07,16,05,59,12.70
2013,07,16,06,00,12.60
2013,07,16,06,01,12.60
2013,07,16,06,02,12.60
2013,07,16,06,03,12.60
2013,07,16,06,04,12.60
2013,07,16,06,05,12.60
2013,07,16,06,06,12.60
2013,07,16,06,07,12.60
2013,07,16,06,08,12.60
2013,07,16,06,09,12.60
2013,07,16,06,10,12.60
2013,07,16,06,11,12.60
2013,07,16,06,12,12.50
2013,07,16,06,13,12.50
2013,07,16,06,14,12.50
2013,07,16,06,15,12.40
2013,07,16,06,16,12.40
2013,07,16,06,17,12.40
2013,07,16,06,18,12.30
2013,07,16,06,19,12.30
2013,07,16,06,20,12.30
2013,07,16,06,21,12.30
2013,07,16,06,22,12.30
2013,07,16,06,23,12.20
2013,07,16,06,24,12.20
2013,07,16,06,25,12.20
2013,07,16,06,26,12.20
2013,07,16,06,27,12.20
2013,07,16,06,28,12.10
2013,07,16,06,29,12.10
2013,07,16,06,30,12.10
2013,07,16,06,31,12.10
2013,07,16,06,32,12.10
2013,07,16,06,33,12.10
2013,07,16,06,34,12.10
2013,07,16,06,35,12.20
2013,07,16,06,36,12.20
2013,07,16,06,37,12.20
2013,07,16,06,38,12.20
2013,07,16,06,39,12.20
2013,07,16,06,40,12.20
2013,07,16,06,41,12.20
2013,07,16,06,42,12.30
2013,07,16,06,43,12.30
2013,07,16,06,44,12.40
2013,07,16,06,45,12.40
2013,07,16,06,46,12.40
2013,07,16,06,47,12.50
2013,07,16,06,48,12.50
2013,07,16,06,49,12.50
2013,07,16,06,50,12.50
2013,07,16,06,51,12.50
2013,07,16,06,52,12.60
2013,07,16,06,53,12.60
2013,07,16,06,54,12.60
2013,07,16,06,55,12.70
2013,07,16,06,56,12.70
2013,07,16,06,57,12.70
2013,07,16,06,58,12.70
2013,07,16,06,59,12.70
2013,07,16,07,00,12.80
2013,07,16,07,01,12.80
2013,07,16,07,02,12.80
2013,07,16,07,03,12.90
2013,07,16,07,04,13.00
2013,07,16,07,05,13.10
2013,07,16,07,06,13.20
2013,07,16,07,07,13.30
2013,07,16,07,08,13.30
2013,07,16,07,09,13.40
2013,07,16,07,10,13.40
2013,07,16,07,11,13.50
2013,07,16,07,12,13.50
2013,07,16,07,13,13.60
2013,07,16,07,14,13.70
2013,07,16,07,15,13.80
2013,07,16,07,16,13.80
2013,07,16,07,17,13.90
2013,07,16,07,18,14.10
2013,07,16,07,19,14.20
2013,07,16,07,20,14.30
2013,07,16,07,21,14.50
2013,07,16,07,22,14.60
2013,07,16,07,23,14.80
2013,07,16,07,24,14.90
2013,07,16,07,25,15.00
2013,07,16,07,26,15.20
2013,07,16,07,27,15.30
2013,07,16,07,28,15.40
2013,07,16,07,29,15.50
2013,07,16,07,30,15.60
2013,07,16,07,31,15.70
2013,07,16,07,32,15.80
2013,07,16,07,33,15.80
2013,07,16,07,34,15.90
2013,07,16,07,35,15.90
2013,07,16,07,36,16.00
2013,07,16,07,37,16.10
2013,07,16,07,38,16.10
2013,07,16,07,39,16.20
2013,07,16,07,40,16.30
2013,07,16,07,41,16.30
2013,07,16,07,42,16.40
2013,07,16,07,43,16.50
2013,07,16,07,44,16.60
2013,07,16,07,45,16.70
2013,07,16,07,46,16.80
2013,07,16,07,47,16.90
2013,07,16,07,48,17.00
2013,07,16,07,49,17.20
2013,07,16,07,50,17.30
2013,07,16,07,51,17.40
2013,07,16,07,52,17.50
2013,07,16,07,53,17.60
2013,07,16,07,54,17.60
2013,07,16,07,55,17.70
2013,07,16,07,56,17.80
2013,07,16,07,57,17.90
2013,07,16,07,58,18.00
2013,07,16,07,59,18.10
2013,07,16,08,00,18.30
2013,07,16,08,01,18.40
2013,07,16,08,02,18.40
2013,07,16,08,03,18.40
2013,07,16,08,04,18.40
2013,07,16,08,05,18.50
2013,07,16,08,06,18.60
2013,07,16,08,07,18.70
2013,07,16,08,08,18.70
2013,07,16,08,09,18.80
2013,07,16,08,10,18.90
2013,07,16,08,11,18.90
2013,07,16,08,12,18.80
2013,07,16,08,13,18.80
2013,07,16,08,14,18.60
2013,07,16,08,15,18.50
2013,07,16,08,16,18.40
2013,07,16,08,17,18.40
2013,07,16,08,18,18.30
2013,07,16,08,19,18.30
2013,07,16,08,20,18.20
2013,07,16,08,21,18.20
2013,07,16,08,22,18.20
2013,07,16,08,23,18.30
2013,07,16,08,24,18.40
2013,07,16,08,25,18.40
2013,07,16,08,26,18.50
2013,07,16,08,27,18.50
2013,07,16,08,28,18.60
2013,07,16,08,29,18.70
2013,07,16,08,30,18.70
2013,07,16,08,31,18.60
2013,07,16,08,32,18.60
2013,07,16,08,33,18.50
2013,07,16,08,34,18.50
2013,07,16,08,35,18.60
2013,07,16,08,36,18.60
2013,07,16,08,37,18.60
2013,07,16,08,38,18.70
2013,07,16,08,39,18.70
2013,07,16,08,40,18.70
2013,07,16,08,41,18.70
2013,07,16,08,42,18.60
2013,07,16,08,43,18.60
2013,07,16,08,44,18.50
2013,07,16,08,45,18.40
2013,07,16,08,46,18.40
2013,07,16,08,47,18.50
2013,07,16,08,48,18.60
2013,07,16,08,49,18.70
2013,07,16,08,50,18.80
2013,07,16,08,51,18.90
2013,07,16,08,52,19.00
2013,07,16,08,53,19.10
2013,07,16,08,54,19.10
2013,07,16,08,55,19.10
2013,07,16,08,56,19.20
2013,07,16,08,57,19.20
2013,07,16,08,58,19.20
2013,07,16,08,59,19.30
2013,07,16,09,00,19.30
2013,07,16,09,01,19.30
2013,07,16,09,02,19.30
2013,07,16,09,03,19.30
2013,07,16,09,04,19.40
2013,07,16,09,05,19.40
2013,07,16,09,06,19.50
2013,07,16,09,07,19.60
2013,07,16,09,08,19.60
2013,07,16,09,09,19.70
2013,07,16,09,10,19.70
2013,07,16,09,11,19.70
2013,07,16,09,12,19.80
2013,07,16,09,13,19.80
2013,07,16,09,14,19.80
2013,07,16,09,15,19.80
2013,07,16,09,16,19.80
2013,07,16,09,17,19.90
2013,07,16,09,18,20.00
2013,07,16,09,19,20.10
2013,07,16,09,20,20.20
2013,07,16,09,21,20.20
2013,07,16,09,22,20.20
2013,07,16,09,23,20.30
2013,07,16,09,24,20.20
2013,07,16,09,25,20.20
2013,07,16,09,26,20.10
2013,07,16,09,27,20.10
2013,07,16,09,28,20.00
2013,07,16,09,29,20.00
2013,07,16,09,30,19.90
2013,07,16,09,31,19.90
2013,07,16,09,32,19.80
2013,07,16,09,33,19.80
2013,07,16,09,34,19.80
2013,07,16,09,35,19.80
2013,07,16,09,36,19.80
2013,07,16,09,37,19.80
2013,07,16,09,38,19.90
2013,07,16,09,39,19.90
2013,07,16,09,40,20.00
2013,07,16,09,41,20.10
2013,07,16,09,42,20.10
2013,07,16,09,43,20.20
2013,07,16,09,44,20.30
2013,07,16,09,45,20.30
2013,07,16,09,46,20.40
2013,07,16,09,47,20.50
2013,07,16,09,48,20.50
2013,07,16,09,49,20.60
2013,07,16,09,50,20.60
2013,07,16,09,51,20.60
2013,07,16,09,52,20.60
2013,07,16,09,53,20.60
2013,07,16,09,54,20.60
2013,07,16,09,55,20.50
2013,07,16,09,56,20.50
2013,07,16,09,57,20.50
2013,07,16,09,58,20.60
2013,07,16,09,59,20.60
2013,07,16,10,00,20.60
2013,07,16,10,01,20.60
2013,07,16,10,02,20.70
2013,07,16,10,03,20.70
2013,07,16,10,04,20.90
2013,07,16,10,05,21.00
2013,07,16,10,06,21.10
2013,07,16,10,07,21.30
2013,07,16,10,08,21.40
2013,07,16,10,09,21.40
2013,07,16,10,10,21.60
2013,07,16,10,11,21.70
2013,07,16,10,12,21.80
2013,07,16,10,13,21.80
2013,07,16,10,14,21.90
2013,07,16,10,15,22.00
2013,07,16,10,16,22.10
2013,07,16,10,17,22.10
2013,07,16,10,18,22.20
2013,07,16,10,19,22.30
2013,07,16,10,20,22.20
2013,07,16,10,21,22.00
2013,07,16,10,22,21.90
2013,07,16,10,23,21.90
2013,07,16,10,24,21.80
2013,07,16,10,25,21.70
2013,07,16,10,26,21.60
2013,07,16,10,27,21.60
2013,07,16,10,28,21.60
2013,07,16,10,29,21.60
2013,07,16,10,30,21.60
2013,07,16,10,31,21.60
2013,07,16,10,32,21.50
2013,07,16,10,33,21.40
2013,07,16,10,34,21.40
2013,07,16,10,35,21.40
2013,07,16,10,36,21.40
2013,07,16,10,37,21.50
2013,07,16,10,38,21.50
2013,07,16,10,39,21.60
2013,07,16,10,40,21.60
2013,07,16,10,41,21.70
2013,07,16,10,42,21.70
2013,07,16,10,43,21.80
2013,07,16,10,44,21.70
2013,07,16,10,45,21.70
2013,07,16,10,46,21.70
2013,07,16,10,47,21.70
2013,07,16,10,48,21.70
2013,07,16,10,49,21.70
2013,07,16,10,50,21.70
2013,07,16,10,51,21.80
2013,07,16,10,52,21.80
2013,07,16,10,53,21.80
2013,07,16,10,54,21.90
2013,07,16,10,55,22.00
2013,07,16,10,56,22.00
2013,07,16,10,57,22.10
2013,07,16,10,58,22.10
2013,07,16,10,59,22.10
2013,07,16,11,00,22.10
2013,07,16,11,01,22.10
2013,07,16,11,02,22.10
2013,07,16,11,03,22.20
2013,07,16,11,04,22.20
2013,07,16,11,05,22.20
2013,07,16,11,06,22.20
2013,07,16,11,07,22.20
2013,07,16,11,08,22.10
2013,07,16,11,09,22.00
2013,07,16,11,10,21.90
2013,07,16,11,11,21.90
2013,07,16,11,12,21.80
2013,07,16,11,13,21.80
2013,07,16,11,14,21.80
2013,07,16,11,15,21.90
2013,07,16,11,16,22.10
2013,07,16,11,17,22.20
2013,07,16,11,18,22.40
2013,07,16,11,19,22.50
2013,07,16,11,20,22.60
2013,07,16,11,21,22.70
2013,07,16,11,22,22.80
2013,07,16,11,23,22.80
2013,07,16,11,24,22.80
2013,07,16,11,25,22.70
2013,07,16,11,26,22.60
2013,07,16,11,27,22.40
2013,07,16,11,28,22.30
2013,07,16,11,29,22.30
2013,07,16,11,30,22.30
2013,07,16,11,31,22.40
2013,07,16,11,32,22.50
2013,07,16,11,33,22.50
2013,07,16,11,34,22.70
2013,07,16,11,35,22.80
2013,07,16,11,36,22.90
2013,07,16,11,37,22.90
2013,07,16,11,38,23.00
2013,07,16,11,39,23.10
2013,07,16,11,40,23.20
2013,07,16,11,41,23.20
2013,07,16,11,42,23.10
2013,07,16,11,43,23.00
2013,07,16,11,44,22.90
2013,07,16,11,45,22.80
2013,07,16,11,46,22.70
2013,07,16,11,47,22.70
2013,07,16,11,48,22.60
2013,07,16,11,49,22.60
2013,07,16,11,50,22.50
2013,07,16,11,51,22.50
2013,07,16,11,52,22.50
2013,07,16,11,53,22.60
2013,07,16,11,54,22.60
2013,07,16,11,55,22.70
2013,07,16,11,56,22.80
2013,07,16,11,57,23.00
2013,07,16,11,58,23.10
2013,07,16,11,59,23.30
2013,07,16,12,00,23.50
2013,07,16,12,01,23.70
2013,07,16,12,02,23.80
2013,07,16,12,03,24.00
2013,07,16,12,04,24.00
2013,07,16,12,05,24.10
2013,07,16,12,06,24.20
2013,07,16,12,07,24.20
2013,07,16,12,08,24.30
2013,07,16,12,09,24.40
2013,07,16,12,10,24.40
2013,07,16,12,11,24.40
2013,07,16,12,12,24.40
2013,07,16,12,13,24.40
2013,07,16,12,14,24.30
2013,07,16,12,15,24.30
2013,07,16,12,16,24.30
2013,07,16,12,17,24.30
2013,07,16,12,18,24.40
2013,07,16,12,19,24.60
2013,07,16,12,20,24.70
2013,07,16,12,21,24.80
2013,07,16,12,22,24.90
2013,07,16,12,23,25.00
2013,07,16,12,24,25.20
2013,07,16,12,25,25.30
2013,07,16,12,26,25.40
2013,07,16,12,27,25.40
2013,07,16,12,28,25.30
2013,07,16,12,29,25.20
2013,07,16,12,30,25.00
2013,07,16,12,31,24.80
2013,07,16,12,32,24.60
2013,07,16,12,33,24.30
2013,07,16,12,34,24.10
2013,07,16,12,35,24.10
2013,07,16,12,36,24.10
2013,07,16,12,37,24.00
2013,07,16,12,38,24.00
2013,07,16,12,39,24.00
2013,07,16,12,40,24.00
2013,07,16,12,41,24.00
2013,07,16,12,42,24.00
2013,07,16,12,43,24.10
2013,07,16,12,44,24.20
2013,07,16,12,45,24.30
2013,07,16,12,46,24.40
2013,07,16,12,47,24.40
2013,07,16,12,48,24.50
2013,07,16,12,49,24.50
2013,07,16,12,50,24.50
2013,07,16,12,51,24.50
2013,07,16,12,52,24.50
2013,07,16,12,53,24.70
2013,07,16,12,54,24.80
2013,07,16,12,55,24.80
2013,07,16,12,56,24.90
2013,07,16,12,57,25.00
2013,07,16,12,58,25.10
2013,07,16,12,59,25.20
2013,07,16,13,00,25.30
2013,07,16,13,01,25.30
2013,07,16,13,02,25.40
2013,07,16,13,03,25.50
2013,07,16,13,04,25.60
2013,07,16,13,05,25.60
2013,07,16,13,06,25.70
2013,07,16,13,07,25.70
2013,07,16,13,08,25.60
2013,07,16,13,09,25.60
2013,07,16,13,10,25.50
2013,07,16,13,11,25.40
2013,07,16,13,12,25.40
2013,07,16,13,13,25.50
2013,07,16,13,14,25.50
2013,07,16,13,15,25.50
2013,07,16,13,16,25.50
2013,07,16,13,17,25.60
2013,07,16,13,18,25.70
2013,07,16,13,19,25.70
2013,07,16,13,20,25.80
2013,07,16,13,21,25.90
2013,07,16,13,22,26.00
2013,07,16,13,23,26.00
2013,07,16,13,24,26.00
2013,07,16,13,25,26.10
2013,07,16,13,26,26.10
2013,07,16,13,27,26.10
2013,07,16,13,28,26.20
2013,07,16,13,29,26.20
2013,07,16,13,30,26.30
2013,07,16,13,31,26.30
2013,07,16,13,32,26.40
2013,07,16,13,33,26.40
2013,07,16,13,34,26.40
2013,07,16,13,35,26.50
2013,07,16,13,36,26.60
2013,07,16,13,37,26.70
2013,07,16,13,38,26.90
2013,07,16,13,39,26.90
2013,07,16,13,40,27.10
2013,07,16,13,41,27.20
2013,07,16,13,42,27.30
2013,07,16,13,43,27.50
2013,07,16,13,44,27.60
2013,07,16,13,45,27.70
2013,07,16,13,46,27.80
2013,07,16,13,47,27.90
2013,07,16,13,48,28.00
2013,07,16,13,49,28.10
2013,07,16,13,50,28.10
2013,07,16,13,51,28.20
2013,07,16,13,52,28.30
2013,07,16,13,53,28.40
2013,07,16,13,54,28.60
2013,07,16,13,55,28.60
2013,07,16,13,56,28.60
2013,07,16,13,57,28.60
2013,07,16,13,58,28.60
2013,07,16,13,59,28.50
2013,07,16,14,00,28.40
2013,07,16,14,01,28.30
2013,07,16,14,02,28.30
2013,07,16,14,03,28.30
2013,07,16,14,04,28.30
2013,07,16,14,05,28.40
2013,07,16,14,06,28.50
2013,07,16,14,07,28.70
2013,07,16,14,08,28.80
2013,07,16,14,09,28.80
2013,07,16,14,10,28.70
2013,07,16,14,11,28.70
2013,07,16,14,12,28.80
2013,07,16,14,13,28.90
2013,07,16,14,14,29.00
2013,07,16,14,15,29.00
2013,07,16,14,16,29.10
2013,07,16,14,17,29.00
2013,07,16,14,18,28.90
2013,07,16,14,19,28.90
2013,07,16,14,20,28.80
2013,07,16,14,21,28.70
2013,07,16,14,22,28.70
2013,07,16,14,23,28.70
2013,07,16,14,24,28.70
2013,07,16,14,25,28.70
2013,07,16,14,26,28.70
2013,07,16,14,27,28.70
2013,07,16,14,28,28.80
2013,07,16,14,29,28.70
2013,07,16,14,30,28.70
2013,07,16,14,31,28.80
2013,07,16,14,32,28.90
2013,07,16,14,33,29.10
2013,07,16,14,34,29.20
2013,07,16,14,35,29.40
2013,07,16,14,36,29.50
2013,07,16,14,37,29.70
2013,07,16,14,38,29.80
2013,07,16,14,39,30.00
2013,07,16,14,40,30.10
2013,07,16,14,41,30.10
2013,07,16,14,42,30.10
2013,07,16,14,43,30.00
2013,07,16,14,44,29.90
2013,07,16,14,45,29.80
2013,07,16,14,46,29.80
2013,07,16,14,47,29.80
2013,07,16,14,48,29.80
2013,07,16,14,49,29.80
2013,07,16,14,50,29.90
2013,07,16,14,51,29.80
2013,07,16,14,52,29.70
2013,07,16,14,53,29.60
2013,07,16,14,54,29.40
2013,07,16,14,55,29.30
2013,07,16,14,56,29.30
2013,07,16,14,57,29.30
2013,07,16,14,58,29.30
2013,07,16,14,59,29.40
2013,07,16,15,00,29.40
2013,07,16,15,01,29.40
2013,07,16,15,02,29.50
2013,07,16,15,03,29.50
2013,07,16,15,04,29.60
2013,07,16,15,05,29.60
2013,07,16,15,06,29.60
2013,07,16,15,07,29.60
2013,07,16,15,08,29.60
2013,07,16,15,09,29.60
2013,07,16,15,10,29.60
2013,07,16,15,11,29.60
2013,07,16,15,12,29.60
2013,07,16,15,13,29.50
2013,07,16,15,14,29.40
2013,07,16,15,15,29.40
2013,07,16,15,16,29.30
2013,07,16,15,17,29.30
2013,07,16,15,18,29.30
2013,07,16,15,19,29.30
2013,07,16,15,20,29.20
2013,07,16,15,21,29.20
2013,07,16,15,22,29.20
2013,07,16,15,23,29.20
2013,07,16,15,24,29.20
2013,07,16,15,25,29.20
2013,07,16,15,26,29.20
2013,07,16,15,27,29.20
2013,07,16,15,28,29.20
2013,07,16,15,29,29.20
2013,07,16,15,30,29.20
2013,07,16,15,31,29.20
2013,07,16,15,32,29.10
2013,07,16,15,33,29.10
2013,07,16,15,34,29.20
2013,07,16,15,35,29.20
2013,07,16,15,36,29.20
2013,07,16,15,37,29.20
2013,07,16,15,38,29.10
2013,07,16,15,39,29.10
2013,07,16,15,40,29.10
2013,07,16,15,41,29.10
2013,07,16,15,42,29.20
2013,07,16,15,43,29.20
2013,07,16,15,44,29.30
2013,07,16,15,45,29.30
2013,07,16,15,46,29.30
2013,07,16,15,47,29.30
2013,07,16,15,48,29.30
2013,07,16,15,49,29.30
2013,07,16,15,50,29.30
2013,07,16,15,51,29.20
2013,07,16,15,52,29.20
2013,07,16,15,53,29.10
2013,07,16,15,54,28.90
2013,07,16,15,55,28.70
2013,07,16,15,56,28.50
2013,07,16,15,57,28.20
2013,07,16,15,58,27.90
2013,07,16,15,59,27.70
2013,07,16,16,00,27.40
2013,07,16,16,01,27.10
2013,07,16,16,02,26.80
2013,07,16,16,03,26.60
2013,07,16,16,04,26.30
2013,07,16,16,05,26.00
2013,07,16,16,06,25.80
2013,07,16,16,07,25.60
2013,07,16,16,08,25.40
2013,07,16,16,09,25.30
2013,07,16,16,10,25.30
2013,07,16,16,11,25.20
2013,07,16,16,12,25.20
2013,07,16,16,13,25.20
2013,07,16,16,14,25.30
2013,07,16,16,15,25.30
2013,07,16,16,16,25.30
2013,07,16,16,17,25.30
2013,07,16,16,18,25.40
2013,07,16,16,19,25.40
2013,07,16,16,20,25.50
2013,07,16,16,21,25.50
2013,07,16,16,22,25.60
2013,07,16,16,23,25.70
2013,07,16,16,24,25.70
2013,07,16,16,25,25.80
2013,07,16,16,26,25.90
2013,07,16,16,27,26.00
2013,07,16,16,28,26.00
2013,07,16,16,29,26.10
2013,07,16,16,30,26.20
2013,07,16,16,31,26.30
2013,07,16,16,32,26.30
2013,07,16,16,33,26.30
2013,07,16,16,34,26.40
2013,07,16,16,35,26.40
2013,07,16,16,36,26.40
2013,07,16,16,37,26.50
2013,07,16,16,38,26.60
2013,07,16,16,39,26.70
2013,07,16,16,40,26.70
2013,07,16,16,41,26.80
2013,07,16,16,42,26.80
2013,07,16,16,43,26.80
2013,07,16,16,44,26.90
2013,07,16,16,45,26.80
2013,07,16,16,46,26.80
2013,07,16,16,47,26.70
2013,07,16,16,48,26.70
2013,07,16,16,49,26.60
2013,07,16,16,50,26.50
2013,07,16,16,51,26.50
2013,07,16,16,52,26.50
2013,07,16,16,53,26.50
2013,07,16,16,54,26.50
2013,07,16,16,55,26.60
2013,07,16,16,56,26.60
2013,07,16,16,57,26.60
2013,07,16,16,58,26.70
2013,07,16,16,59,26.70
2013,07,16,17,00,26.80
2013,07,16,17,01,26.80
2013,07,16,17,02,26.90
2013,07,16,17,03,27.00
2013,07,16,17,04,27.00
2013,07,16,17,05,27.10
2013,07,16,17,06,27.20
2013,07,16,17,07,27.30
2013,07,16,17,08,27.40
2013,07,16,17,09,27.60
2013,07,16,17,10,27.70
2013,07,16,17,11,27.90
2013,07,16,17,12,27.90
2013,07,16,17,13,27.90
2013,07,16,17,14,27.90
2013,07,16,17,15,27.90
2013,07,16,17,16,27.80
2013,07,16,17,17,27.60
2013,07,16,17,18,27.50
2013,07,16,17,19,27.40